Baudette, MN

1:54 AM CDT on May 27, 2017 (GMT -0500)
Baudette International

Weather History for KBDE - May, 2013

Change the Weather History Date:

Saturday, May 11, 2013

  Actual Average Record
Temperature  
Mean Temperature 38 °F -  
Max Temperature 46 °F 65 °F 83 °F (1991)
Min Temperature 30 °F 40 °F 23 °F (1946)
Degree Days  
Heating Degree Days 28    
Moisture  
Dew Point 26 °F    
Average Humidity 67    
Maximum Humidity 87    
Minimum Humidity 39    
Precipitation  
Precipitation 0.00 in - - ()
Sea Level Pressure  
Sea Level Pressure 30.15 in    
Wind  
Wind Speed 18 mph (NW)    
Max Wind Speed 26 mph    
Max Gust Speed 39 mph    
Visibility 10 miles    
Events Snow    
Averages and records for this station are not official NWS values.
T = Trace of Precipitation, MM = Missing Value Source: NWS Daily Summary

Daily Weather History Graph

Daily Weather History Graph

Search for Another Location

Airport or City:

Trip Planner

Search our weather history database for the weather conditions in past years. The results will help you decide how hot, cold, wet, or windy it might be!

Date:

Astronomy

May. 11, 2013 Rise Set
Actual Time 5:42 AM CDT 8:48 PM CDT
Civil Twilight 5:05 AM CDT 9:25 PM CDT
Nautical Twilight 4:16 AM CDT 10:14 PM CDT
Astronomical Twilight 3:16 AM CDT 11:15 PM CDT
Moon 6:48 AM CDT (5/11) 10:32 PM CDT (5/11)
Length of Visible Light 16h 20m
Length of Day
15h 05m
Waxing Crescent, 3% of the Moon is Illuminated
May 11
Waxing Crescent
May 17
First Quarter
May 24
Full
May 31
Last Quarter
Jun 8
New

Hourly Weather History & Observations

Time (CDT) Temp. Windchill Dew Point Humidity Pressure Visibility Wind Dir Wind Speed Gust Speed Precip Events Conditions
12:53 AM 35.1 °F 26.4 °F 28.0 °F 76% 30.07 in 10.0 mi NW 12.7 mph - N/A   Clear
1:53 AM 35.1 °F 25.9 °F 28.0 °F 76% 30.07 in 10.0 mi NW 13.8 mph 21.9 mph N/A   Clear
2:53 AM 36.0 °F 25.6 °F 28.9 °F 76% 30.07 in 10.0 mi NW 18.4 mph 26.5 mph N/A   Scattered Clouds
3:53 AM 35.1 °F 24.5 °F 30.0 °F 82% 30.08 in 10.0 mi NW 18.4 mph 27.6 mph N/A   Mostly Cloudy
4:27 AM 35.6 °F 25.2 °F 30.2 °F 81% 30.06 in 10.0 mi NW 18.4 mph 26.5 mph N/A   Overcast
4:53 AM 35.1 °F 23.8 °F 30.9 °F 85% 30.09 in 8.0 mi NW 20.7 mph 28.8 mph 0.00 in Snow Light Snow
5:00 AM 35.6 °F 25.5 °F 30.2 °F 81% 30.06 in 6.0 mi NW 17.3 mph 27.6 mph 0.00 in Snow Light Snow
5:22 AM 33.8 °F 22.5 °F 30.2 °F 87% 30.07 in 10.0 mi NW 19.6 mph 32.2 mph 0.00 in   Overcast
5:53 AM 35.1 °F 23.8 °F 30.0 °F 82% 30.11 in 10.0 mi NW 20.7 mph 27.6 mph 0.00 in   Overcast
6:04 AM 35.6 °F 24.2 °F 30.2 °F 81% 30.07 in 10.0 mi NW 21.9 mph 31.1 mph N/A   Overcast
6:40 AM 33.8 °F 20.8 °F 28.4 °F 81% 30.08 in 10.0 mi NW 26.5 mph 34.5 mph N/A   Overcast
6:53 AM 34.0 °F 21.0 °F 27.0 °F 75% 30.13 in 10.0 mi NW 26.5 mph 35.7 mph N/A   Overcast
7:03 AM 33.8 °F 22.5 °F 26.6 °F 75% 30.09 in 10.0 mi NW 19.6 mph 33.4 mph N/A   Overcast
7:53 AM 34.0 °F 21.3 °F 27.0 °F 75% 30.14 in 10.0 mi NW 25.3 mph 33.4 mph N/A   Overcast
8:35 AM 35.6 °F 24.0 °F 26.6 °F 70% 30.11 in 10.0 mi NW 23.0 mph 29.9 mph N/A   Overcast
8:51 AM 35.6 °F 24.0 °F 26.6 °F 70% 30.12 in 10.0 mi NW 23.0 mph 32.2 mph N/A   Overcast
8:53 AM 35.1 °F 22.7 °F 27.0 °F 72% 30.16 in 10.0 mi NW 25.3 mph 34.5 mph N/A   Overcast
9:53 AM 36.0 °F 23.9 °F 27.0 °F 70% 30.17 in 10.0 mi NW 25.3 mph 34.5 mph N/A   Overcast
10:53 AM 39.0 °F 28.0 °F 28.0 °F 65% 30.18 in 10.0 mi NW 25.3 mph 34.5 mph N/A   Overcast
11:53 AM 39.0 °F 28.0 °F 27.0 °F 62% 30.20 in 10.0 mi NW 25.3 mph 36.8 mph N/A   Overcast
12:53 PM 41.0 °F 31.9 °F 25.0 °F 53% 30.21 in 10.0 mi NNW 19.6 mph 39.1 mph N/A   Overcast
1:53 PM 43.0 °F 33.5 °F 27.0 °F 53% 30.21 in 10.0 mi NNW 24.2 mph 32.2 mph N/A   Overcast
2:53 PM 42.1 °F 32.1 °F 24.1 °F 49% 30.22 in 10.0 mi NW 25.3 mph 32.2 mph N/A   Overcast
3:53 PM 44.1 °F 35.7 °F 23.0 °F 43% 30.22 in 10.0 mi NNW 20.7 mph 32.2 mph N/A   Mostly Cloudy
4:53 PM 45.0 °F 36.2 °F 21.0 °F 39% 30.22 in 10.0 mi NNW 24.2 mph 31.1 mph N/A   Scattered Clouds
5:53 PM 44.1 °F 35.7 °F 21.0 °F 40% 30.23 in 10.0 mi North 20.7 mph 28.8 mph N/A   Clear
6:53 PM 43.0 °F 35.4 °F 21.0 °F 42% 30.23 in 10.0 mi North 16.1 mph 25.3 mph N/A   Clear
7:53 PM 41.0 °F 34.3 °F 21.0 °F 45% 30.24 in 10.0 mi North 11.5 mph - N/A   Clear
8:53 PM 37.0 °F 31.0 °F 21.9 °F 54% 30.24 in 10.0 mi North 8.1 mph - N/A   Scattered Clouds
9:53 PM 34.0 °F 31.0 °F 21.9 °F 61% 30.25 in 10.0 mi NNW 3.5 mph - N/A   Clear
10:53 PM 30.9 °F 27.5 °F 23.0 °F 72% 30.25 in 10.0 mi North 3.5 mph - N/A   Scattered Clouds
11:53 PM 30.0 °F 26.5 °F 23.0 °F 75% 30.25 in 10.0 mi West 3.5 mph - N/A   Clear